FW2330 Weather Reports


time (UTC)temp
C
wind
direction
speed
KPH
gust
KPH
rain 1hr
cm
rain 24hr
cm
rain mn
cm
humidity
%
barometer
mb
20260504081546 28 15 0.0 16.1 0.00 0.00 0.00 70 1009.3
20260504044540 32 136 3.2 12.9 0.00 0.00 0.00 58 1009.0
20260504043031 32 150 3.2 12.9 0.00 0.00 0.00 58 1009.3
20260504041530 32 155 3.2 14.5 0.00 0.00 0.00 59 1009.7
20260504040030 32 115 4.8 12.9 0.00 0.00 0.00 56 1010.0
20260504034546 32 137 3.2 12.9 0.00 0.00 0.00 57 1010.4
20260504033028 32 213 1.6 14.5 0.00 0.00 0.00 56 1010.6
20260504031527 31 128 1.6 8.0 0.00 0.00 0.00 58 1010.7
20260504030039 31 126 4.8 12.9 0.00 0.00 0.00 59 1010.8
20260504024525 31 224 1.6 9.7 0.00 0.00 0.00 60 1010.9
20260504023026 31 171 3.2 16.1 0.00 0.00 0.00 59 1010.9
20260504021525 31 107 1.6 16.1 0.00 0.00 0.00 60 1011.0
20260504020023 31 183 1.6 12.9 0.00 0.00 0.00 59 1011.1
20260504014535 31 134 1.6 11.3 0.00 0.00 0.00 57 1011.2
20260504013022 32 184 0.0 9.7 0.00 0.00 0.00 56 1011.2
20260504011519 31 130 0.0 4.8 0.00 0.00 0.00 63 1011.3
20260504010020 31 130 0.0 8.0 0.00 0.00 0.00 63 1011.3
20260504004515 30 60 0.0 8.0 0.00 0.00 0.00 64 1011.3
20260504003024 30 132 1.6 8.0 0.00 0.00 0.00 65 1011.2
20260504001509 30 129 0.0 6.4 0.00 0.00 0.00 67 1011.2
20260504000007 30 90 0.0 4.8 0.00 0.00 0.00 67 1011.0
20260503234513 29 11 0.0 3.2 0.00 0.00 0.00 68 1010.8
20260503233002 28 12 0.0 4.8 0.00 0.00 0.00 69 1010.5
20260503231558 28 13 0.0 3.2 0.00 0.00 0.00 72 1010.3
20260503230100 27 19 0.0 1.6 0.00 0.00 0.00 74 1010.3
20260503224552 27 20 0.0 1.6 0.00 0.00 0.00 74 1010.0
20260503223056 26 21 0.0 3.2 0.00 0.00 0.00 75 1009.9
20260503221551 26 248 0.0 1.6 0.00 0.00 0.00 77 1009.8
20260503220045 25 247 0.0 1.6 0.00 0.03 0.00 78 1009.6
20260503214544 25 245 0.0 0.0 0.00 0.03 0.00 79 1009.5
20260503213059 25 319 0.0 0.0 0.00 0.03 0.00 79 1009.3
20260503211542 25 5 0.0 0.0 0.00 0.03 0.00 79 1009.1
20260503210053 25 5 0.0 0.0 0.00 0.03 0.00 79 1009.2
20260503204549 25 5 0.0 0.0 0.00 0.03 0.00 79 1009.2
20260503203040 25 5 0.0 0.0 0.00 0.03 0.00 79 1009.0
20260503201538 25 5 0.0 0.0 0.00 0.03 0.00 79 1008.9
20260503200036 25 5 0.0 0.0 0.00 0.03 0.00 79 1008.5
20260503194538 25 5 0.0 0.0 0.00 0.03 0.00 79 1008.6
20260503193046 25 5 0.0 0.0 0.00 0.03 0.00 79 1008.5
20260503191535 25 5 0.0 0.0 0.00 0.03 0.00 79 1008.5
20260503190037 25 5 0.0 0.0 0.00 0.05 0.00 79 1008.7
20260503184540 25 5 0.0 0.0 0.00 0.05 0.00 79 1008.7
20260503183035 25 5 0.0 0.0 0.00 0.05 0.00 79 1008.7
20260503181530 25 5 0.0 0.0 0.00 0.05 0.00 78 1008.9
20260503180032 25 5 0.0 0.0 0.00 0.10 0.00 78 1008.9
20260503174527 25 5 0.0 0.0 0.00 0.10 0.00 78 1008.9
20260503173035 25 5 0.0 0.0 0.00 0.10 0.00 78 1009.1
20260503171524 25 5 0.0 0.0 0.00 0.10 0.00 78 1009.3